This is the latest recevied weather packets stored in our database for station/object N6RDS. If no packets are shown the sender has not sent any weather packets the latest 10 day(s).
| Time | Temp. | Humidity | Pressure | Rain* | Wind** | Luminosity | Snow |
|---|---|---|---|---|---|---|---|
| 1777057159 | 17.22° C | 21% | 1021.1 hPa | 0 mm | - | 788 W/m² | - |
| 1777056855 | 16.67° C | 22% | 1021 hPa | 0 mm | - | 788 W/m² | - |
| 1777056550 | 17.78° C | 22% | 1021.1 hPa | 0 mm | - | 783 W/m² | - |
| 1777056245 | 17.78° C | 23% | 1020.8 hPa | 0 mm | - | 778 W/m² | - |
| 1777055941 | 17.22° C | 22% | 1020.8 hPa | 0 mm | - | 772 W/m² | - |
| 1777055638 | 17.22° C | 21% | 1021.1 hPa | 0 mm | - | 767 W/m² | - |
| 1777055333 | 16.67° C | 22% | 1021.2 hPa | 0 mm | - | 761 W/m² | - |
| 1777055032 | 16.67° C | 20% | 1021 hPa | 0 mm | - | 756 W/m² | - |
| 1777054728 | 16.11° C | 21% | 1021.1 hPa | 0 mm | - | 751 W/m² | - |
| 1777054425 | 16.11° C | 22% | 1021.5 hPa | 0 mm | - | 744 W/m² | - |
| 1777054124 | 16.11° C | 20% | 1021.3 hPa | 0 mm | - | 737 W/m² | - |
| 1777053818 | 16.67° C | 21% | 1021.3 hPa | 0 mm | - | 728 W/m² | - |
| 1777053513 | 16.67° C | 21% | 1021.5 hPa | 0 mm | - | 721 W/m² | - |
| 1777053209 | 16.11° C | 22% | 1021.6 hPa | 0 mm | - | 713 W/m² | - |
| 1777052906 | 15.56° C | 22% | 1021.5 hPa | 0 mm | - | 706 W/m² | - |
| 1777052601 | 16.67° C | 22% | 1021.3 hPa | 0 mm | - | 697 W/m² | - |
| 1777052297 | 16.67° C | 23% | 1021.5 hPa | 0 mm | - | 687 W/m² | - |
| 1777051993 | 16.11° C | 20% | 1021.5 hPa | 0 mm | - | 678 W/m² | - |
| 1777051690 | 16.11° C | 21% | 1021.3 hPa | 0 mm | - | 668 W/m² | - |
| 1777051386 | 16.11° C | 21% | 1021.7 hPa | 0 mm | - | 658 W/m² | - |
| 1777051082 | 15.56° C | 23% | 1021.7 hPa | 0 mm | - | 647 W/m² | - |
* Rain latest hour (hover to see other rain measurements)
** Current wind speed in m/s (hover to see current wind gust speed)